Regional Weather Roundup
Issued by NWS

Home | Current Version | Previous Version | Text Only | Print | Product List | Glossary On
Versions: 1 2 3 4 5 6 7 8 9 10 11 12 13 14 15 16 17 18 19 20 21 22 23 24 25 26 27 28 29 30 31 32 33 34 35 36 37 38 39 40 41 42 43 44 45 46 47 48 49 50
000
ASUS44 KLUB 060210
RWRTX
WEST TEXAS WEATHER ROUNDUP
NATIONAL WEATHER SERVICE LUBBOCK TX
900 PM CDT TUE MAY 05 2015

NOTE: "FAIR" INDICATES FEW OR NO CLOUDS BELOW 12,000 FEET WITH NO
SIGNIFICANT WEATHER AND/OR OBSTRUCTIONS TO VISIBILITY.

TXZ004-006>008-010-012-014-016-OKZ002-060300-
TEXAS PANHANDLE/OKLAHOMA PANHANDLE

CITY           SKY/WX    TMP DP  RH WIND       PRES   REMARKS
AMARILLO       CLOUDY    56  50  80 S7        29.84R
BORGER         LGT RAIN  58  52  80 E6        29.83F
CANADIAN       CLOUDY    62  59  90 S14       29.85R
DALHART        MOCLDY    54  50  86 S7        29.81F
DUMAS          CLOUDY    53  50  90 S6        29.81S
GUYMON         RAIN      56  53  90 SW17      29.82R
HEREFORD       MOCLDY    56  53  89 MISG      29.85S
PAMPA          RAIN      55  52  90 SW5       29.89S
PERRYTON       CLOUDY    55  51  88 SW10G18   29.87R
$$

TXZ026-029-035-045-048-060300-
SOUTHERN PANHANDLE/SOUTH PLAINS/ROLLING PLAINS

CITY           SKY/WX    TMP DP  RH WIND       PRES   REMARKS
CHILDRESS      TSTM      58  55  90 NW13      29.92R FOG
SEMINOLE       CLEAR     66  45  46 CALM      29.86R
LUBBOCK        PTCLDY    59  55  87 E8        29.85R
PLAINVIEW      MOCLDY    57  52  82 CALM      29.85S
SNYDER         MOCLDY    68  64  88 SE13      29.85R
$$

TXZ052-054-060>062-072-078-127-140-154-169-060300-
PERMIAN BASIN/CONCHO VALLEY/BIG COUNTRY/EDWARDS PLATEAU

CITY           SKY/WX    TMP DP  RH WIND       PRES   REMARKS
ABILENE        MOCLDY    71  61  70 S14       29.86R
BIG SPRING     CLEAR     74  60  61 E10       29.86R
BROWNWOOD      CLOUDY    70  63  78 S12G20    29.90S
JUNCTION       CLOUDY    69  65  86 SE8       29.91R
MIDLAND        CLEAR     75  41  29 S5        29.84R
ODESSA         CLEAR     73  39  29 W5        29.84R
SAN ANGELO     MOCLDY    71  64  78 SE12      29.87R
SONORA         PTCLDY    70  66  88 SE10      29.94R
SWEETWATER     PTCLDY    69  64  86 SE18      29.89R
WINK           CLEAR     74  42  31 W6        29.81R
$$

TXZ055-058-074-075-080-082-060300-
FAR WEST/SOUTHWEST MOUNTAINS/TRANS PECOS

CITY           SKY/WX    TMP DP  RH WIND       PRES   REMARKS
ALPINE         CLEAR     69  33  26 SW5       30.00R
DRYDEN           N/A     75  66  73 E18G24    29.84R
EL PASO        PTCLDY    75  32  20 W16G24    29.87R
FORT STOCKTON  PTCLDY    72  61  68 SE13      29.86R
GUADALUPE PASS CLEAR     64  31  28 SW23      29.95R
MARFA          CLEAR     66  30  26 W5        29.98R
PECOS          PTCLDY    74  30  20 W5        29.82R
PRESIDIO       FAIR      83  30  15 CALM      29.81S
$$

TXZ014-016-019-021>030-083-060300
TEXAS TECH WEST TEXAS MESONET/TEXAS PANHANDLE/NORTHERN SOUTH PLAINS

CITY           SKY/WX    TMP DP  RH WIND       PRES   REMARKS
ABERNATHY 5ENE   N/A     55  51  86 NE3       29.87S
AMARILLO 9NNE    N/A     55  51  88 SE7       29.83R
AMARILLO 7SSE    N/A     54  52  92 SE10      29.87R
AMHERST 1NE      N/A     56  52  86 E7        29.86R
BOOTLEG 11WNW    N/A     54  47  76 S12       29.86R
CANADIAN 6E      N/A     61  58  92 SE12      29.84R
CAPROCK CYN SP   N/A     57  53  87 CALM      29.84F
CHILDRESS 2NNE LGT RAIN  64  61  90 SW10G43   29.89R
CLARENDON 2WSW LGT RAIN  54  51  90 E12       29.87F
CLAUDE 12SW      N/A     54  51  88 SE7       29.86S
DIMMITT 2NE      N/A     54  52  92 SE6       29.87R
FLOYDADA 2NNE    N/A     54  53  94 E2        29.86S
FRIONA 2NE       N/A     55  52  88 SE5       29.86S
GOODLETT 3W      N/A     65  61  87 NE1       29.85R
HART 3N          N/A     57  53  86 S1        29.88R
HEREFORD 2NW     N/A     54  49  82 SE7       29.85R
MCLEAN 1E      RAIN      54  52  94 SW17      29.92R
MEMPHIS 1NE    LGT RAIN  56  54  92 SW5       29.92R
MULESHOE 2SSW    N/A     56  52  86 E7        29.85S
OLTON 6S         N/A     56  53  88 E6        29.87S
PALO DURO SP     N/A     55  50  85 S6        29.87R
PAMPA 2E       LGT RAIN  56  52  87 SW9       29.88F
PLAINVIEW 1S     N/A     57  53  87 NW1       29.86S
TULIA 2ENE       N/A     54  52  92 SE6       29.87R
TURKEY 2WSW      N/A     57  55  94 NE14      29.84F
UMBARGER 3NNE    N/A     54  51  89 SE10      29.86R
$$

TXZ033>036-039>041-045>048-060300
TEXAS TECH WEST TEXAS MESONET/SOUTH PLAINS

CITY           SKY/WX    TMP DP  RH WIND       PRES   REMARKS
AIKEN 3WSW       N/A     56  54  92 SE3       29.87F
ANDREWS 2NE      N/A     70  39  32 SW5       29.86R
ANTON 6SSW       N/A     60  56  85 NE12      29.86R
BROWNFIELD 2S    N/A     64  53  67 SW7       29.85R
DENVR CTY 7WNW   N/A     62  49  61 S8        29.85R
GAIL 2ESE        N/A     67  58  73 S7        29.83R
LAMESA 2SE       N/A     67  53  60 W8        29.85R
LEVELLAND 4S     N/A     62  53  71 SE5       29.85R
LUBBOCK 3WNW     N/A     59  55  84 E3        29.86R
MORTON 1ENE      N/A     62  53  72 NE1       29.85R
ODONNELL 1N      N/A     65  54  69 SW5       29.85R
PLAINS 3N        N/A     61  51  68 S7        29.85R
RALLS 1SE        N/A     59  54  83 SW5       29.87R
REESE CENTER     N/A     59  55  88 E9        29.85R
SEAGRAVES 1SW    N/A     64  53  68 S8        29.85R
SEMINOLE 2NNE    N/A     68  44  42 SW5       29.85R
SLATON 2NE       N/A     61  54  78 NE3       29.87R
SNYDER 3E        N/A     68  64  87 SE18      29.83R
SUNDOWN 8SW      N/A     59  51  76 S7        29.85R
TAHOKA 3NNE      N/A     63  51  64 N3        29.86R
WOLFFORTH 6SSW   N/A     61  60  96 E6        29.86R
$$

TXZ031-032-036>038-042>044-060300-
TEXAS TECH WEST TEXAS MESONET/ROLLING PLAINS

CITY           SKY/WX    TMP DP  RH WIND       PRES   REMARKS
ASPERMONT 3NE    N/A     68  63  84 SE10      29.83R
FLUVANNA 3WNW    N/A     68  61  79 SE12      29.84R
GRAHAM 5SSW      N/A     67  59  74 SE7       29.85R
GUTHRIE 10WSW    N/A     66  62  87 SE12      29.81F
HASKELL 1NW      N/A     69  61  75 S9        29.84R
JAYTON 1SSE      N/A     66  63  89 SE8       29.82S
KNOX CITY 3NW    N/A     66  61  85 SE7       29.83R
LK A HENRY 1NW   N/A     67  62  84 SE9       29.83R
NORTHFIELD 1S  LGT RAIN  59  55  88 W14       29.87F
ODELL 4ENE       N/A     65  64  96 SE2       29.86R
PADUCAH 10SW     N/A     65  62  89 W17G36    29.88R
POST 1NE         N/A     66  60  82 S5        29.84R
RRING SPRGS 3N   N/A     55  53  95 NE3       29.85F
SEYMOUR 3NW      N/A     66  63  90 SE9       29.83R
SPUR 1W          N/A     61  55  81 N5        29.86R
WEINERT 2NNE     N/A     68  63  86 S9        29.84R
WHITE RVR 6NE    N/A     60  53  76 E6        29.85R
$$

TXZ052-054-060>062-072-078-127-140-154-169-060300-
TEXAS TECH WEST TEXAS MESONET/PERMIAN BASIN/
CONCHO VALLEY/BIG COUNTRY/EDWARDS PLATEAU

CITY           SKY/WX    TMP DP  RH WIND       PRES   REMARKS
COYANOSA 2N      N/A     76  57  50 SE9       29.83R
JUNCTION 1SSW    N/A     69  66  89 SE5       29.92R
MERTZON 3NNE     N/A     70  64  80 S13       29.89R
SAN ANGELO 7NW   N/A     71  62  74 SE15      29.87R
STRLNG CT 4WSW   N/A     71  62  73 SE8       29.87R
ST LAWRNCE 5SW   N/A     73  58  59 S13       29.86R
SWEETWATR 11SW   N/A     67  63  88 SE15      29.88R
WALL 1E          N/A     70  62  75 SE15      29.88R
$$

TXZ055-058-074-075-080-082-060300-
TEXAS TECH WEST TEXAS MESONET/FAR WEST/SOUTHWEST MOUNTAINS/TRANS PECOS

CITY           SKY/WX    TMP DP  RH WIND       PRES   REMARKS
PRSMN GAP BBNP   N/A     78  34  20 N3        29.82R
$$



USA.gov is the U.S. government's official web portal to all federal, state and local government web resources and services.